Orbital Elements at Epoch 2459000.5 (2020-May-31.0) TDB
Reference: JPL 12 (heliocentric ecliptic J2000)
Element | Value | Uncertainty (1-sigma) | Units |
e | .09154165886441808 | 4.5762e-08 | |
a | 1.874975772685936 | 9.8767e-09 | au |
q | 1.703337380123671 | 8.7376e-08 | au |
i | 22.62754050484493 | 4.5994e-06 | deg |
node | 177.9057779062674 | 1.4221e-05 | deg |
peri | 134.4670347167561 | 3.1054e-05 | deg |
M | 97.34969883706925 | 2.7689e-05 | deg |
tp | 2458746.914726533217 (2019-Sep-20.41472653) | 7.1937e-05 | TDB |
period | 937.7604608806434 2.57 | 7.4097e-06 2.029e-08 | d yr |
n | .3838933448547477 | 3.0333e-09 | deg/d |
Q | 2.0466141652482 | 1.0781e-08 | au |
|
| | Orbit Determination Parameters
Additional Information
|